This is the latest recevied weather packets stored in our database for station/object W4MLN-1. If no packets are shown the sender has not sent any weather packets the latest 1 day(s).
| Time | Temp. | Humidity | Pressure | Rain* | Wind** | Luminosity | Snow |
|---|---|---|---|---|---|---|---|
| 1778045058 | 17.22° C | 61% | 1013.2 hPa | 0 mm | - | 0 W/m² | - |
| 1778044458 | 16.67° C | 61% | 1013.3 hPa | 0 mm | - | 0 W/m² | - |
| 1778044158 | 16.67° C | 61% | 1013.3 hPa | 0 mm | - | 0 W/m² | - |
| 1778043858 | 16.67° C | 61% | 1013.4 hPa | 0 mm | - | 0 W/m² | - |
| 1778043558 | 16.67° C | 62% | 1013.3 hPa | 0 mm | - | 0 W/m² | - |
| 1778043256 | 16.67° C | 63% | 1013.5 hPa | 0 mm | - | 0 W/m² | - |
| 1778042952 | 16.67° C | 63% | 1013.5 hPa | 0 mm | - | 0 W/m² | - |
| 1778042653 | 16.67° C | 63% | 1013.5 hPa | 0 mm | - | 0 W/m² | - |
| 1778042053 | 16.67° C | 62% | 1013.3 hPa | 0 mm | - | 0 W/m² | - |
| 1778041753 | 16.11° C | 62% | 1013.3 hPa | 0 mm | - | 0 W/m² | - |
| 1778041453 | 16.67° C | 64% | 1013.3 hPa | 0 mm | - | 0 W/m² | - |
| 1778040853 | 16.67° C | 62% | 1013.5 hPa | 0 mm | - | 0 W/m² | - |
| 1778040553 | 16.67° C | 61% | 1013.5 hPa | 0 mm | - | 0 W/m² | - |
| 1778039953 | 16.67° C | 61% | 1013.4 hPa | 0 mm | - | 0 W/m² | - |
| 1778039650 | 16.67° C | 61% | 1013.4 hPa | 0 mm | - | 0 W/m² | - |
| 1778039351 | 16.67° C | 59% | 1013.4 hPa | 0 mm | - | 0 W/m² | - |
| 1778039051 | 16.67° C | 62% | 1013.4 hPa | 0 mm | - | 0 W/m² | - |
| 1778038750 | 17.22° C | 59% | 1013.5 hPa | 0 mm | - | 0 W/m² | - |
| 1778038148 | 17.22° C | 60% | 1013.5 hPa | 0 mm | - | 0 W/m² | - |
| 1778037848 | 17.22° C | 58% | 1013.5 hPa | 0 mm | - | 0 W/m² | - |
| 1778037548 | 17.22° C | 59% | 1013.5 hPa | 0 mm | - | 0 W/m² | - |
| 1778037249 | 17.22° C | 59% | 1013.6 hPa | 0 mm | - | 0 W/m² | - |
| 1778036648 | 17.78° C | 58% | 1013.5 hPa | 0 mm | - | 0 W/m² | - |
| 1778036349 | 17.22° C | 58% | 1013.5 hPa | 0 mm | - | 0 W/m² | - |
| 1778036048 | 17.22° C | 58% | 1013.5 hPa | 0 mm | - | 0 W/m² | - |
* Rain latest hour (hover to see other rain measurements)
** Current wind speed in m/s (hover to see current wind gust speed)